Home   Weather   Stamford   Past weeks

Flag for USA Past Weather in Stamford, Connecticut, USA — Yesterday and Last 2 Weeks

Now
48 °F

Partly sunny.


Feels Like: 42 °F
Forecast: 36 / 48 °F
Wind: 16 mph from Northwest

Location: Westchester County Airport

Current Time: Dec 2, 2016 at 1:19:58 pm

Latest Report: Dec 2, 2016 at 12:56 pm


Visibility: 10 mi

Pressure: 29.84 "Hg

Humidity: 48%

Dew Point: 29 °F

Location of StamfordLocation

Past Weather in Stamford — Graph

°F

Stamford Temperature Yesterday

Maximum temperature yesterday: 54 °F (at 11:56 am)
Minimum temperature yesterday: 40 °F (at 11:56 pm)
Average temperature yesterday: 49 °F

High & Low Weather Summary for the Past Weeks

 TemperatureHumidityPressure
High65 °F (Nov 18, 1:56 pm)97% (Nov 25, 10:56 pm)30.32 "Hg (Nov 25, 10:56 pm)
Low31 °F (Nov 21, 3:04 am)34% (Nov 18, 1:56 pm)29.45 "Hg (Dec 1, 3:04 am)
Average44 °F70%29.97 "Hg
* Reported Nov 17 11:56 am — Dec 2 11:56 am, Stamford, Weather by CustomWeather, © 2016

Note: Actual official high and low records may vary slightly from our data, if they occured in-between our weather recording intervals... More about our weather records

Advertising

Stamford Weather History for the Previous 24 Hours

Scroll right to see more
 ConditionsComfort  
Time TempWeatherWind HumidityBarometerVisibility
11:56 am
Fri, Dec 2
49 °FScattered clouds.17 mph48%29.86 "Hg10 mi
10:56 am47 °FPassing clouds.13 mph52%29.87 "Hg10 mi
9:56 am44 °FPassing clouds.12 mph58%29.90 "Hg10 mi
8:56 am41 °FSunny.12 mph62%29.89 "Hg10 mi
7:56 am39 °FSunny.9 mph65%29.89 "Hg10 mi
6:56 am37 °FClear.7 mph67%29.88 "Hg10 mi
5:56 am38 °FClear.7 mph65%29.86 "Hg10 mi
4:56 am38 °FClear.7 mph65%29.84 "Hg10 mi
3:56 am38 °FClear.10 mph65%29.85 "Hg10 mi
2:56 am38 °FClear.8 mph65%29.85 "Hg10 mi
1:56 am39 °FClear.6 mph60%29.84 "Hg10 mi
12:56 am40 °FClear.7 mph60%29.82 "Hg10 mi
11:56 pm
Thu, Dec 1
40 °FClear.9 mph60%29.80 "Hg10 mi
10:56 pm42 °FPassing clouds.15 mph53%29.80 "Hg10 mi
9:56 pm42 °FPassing clouds.10 mph55%29.79 "Hg10 mi
8:56 pm44 °FClear.12 mph51%29.78 "Hg10 mi
7:56 pm44 °FClear.9 mph55%29.76 "Hg10 mi
6:56 pm46 °FPassing clouds.15 mph51%29.75 "Hg10 mi
5:56 pm47 °FPassing clouds.9 mph52%29.72 "Hg10 mi
4:56 pm47 °FPassing clouds.8 mph52%29.70 "Hg10 mi
3:56 pm48 °FPartly sunny.15 mph50%29.68 "Hg10 mi
2:56 pm49 °FPartly sunny.18 mph50%29.66 "Hg10 mi
1:56 pm50 °FPartly sunny.17 mph50%29.63 "Hg10 mi
Weather by CustomWeather, © 2016

See weather overviewHow to use our weather pages